Skip Page Navigation
NASA JPL Caltech
NASA Logo - Jet Propulsion Laboratory + View the NASA Portal
+ Near-Earth Object (NEO) Program
Search JPL
JPL Home Earth Solar System Stars & Galaxies Technology
JPL Solar System Dynamics
BODIES ORBITS EPHEMERIDES TOOLS PHYSICAL DATA DISCOVERY FAQ SITE MAP
JPL Small-Body Database Browser
Search: [ help ]  
(2013 BE74)
Classification: Amor [NEO]          SPK-ID: 3625707
Ephemeris | Orbit Diagram | Orbital Elements | Physical Parameters | Close-Approach Data ]

[ hide orbit diagram ]
Orbit Diagram
Note: Make sure you have Java enabled on your browser to see the applet. This applet is provided as a 3D orbit visualization tool. The applet was implemented using 2-body methods, and hence should not be used for determining accurate long-term trajectories (over several years or decades) or planetary encounter circumstances. For accurate long-term ephemerides, please instead use our Horizons system.
Orbit Viewer

Additional Notes: the orbits shown in the applet are color coded. The planets are white lines, and the asteroid/comet is a blue line. The bright white line indicates the portion of the orbit that is above the ecliptic plane, and the darker portion is below the ecliptic plane. Likewise for the asteroid/comet orbit, the light blue indicates the portion above the ecliptic plane, and the dark blue the portion below the ecliptic plane.

Orbit Viewer applet originally written and kindly provided by Osamu Ajiki (AstroArts), and further modified by Ron Baalke (JPL).


Orbital Elements at Epoch 2456400.5 (2013-Apr-18.0) TDB
Reference: JPL 11 (heliocentric ecliptic J2000)
 Element Value Uncertainty (1-sigma)   Units 
e .3190058154930857 0.00021549  
a 1.623878307241541 0.00061542 AU
q 1.105851683578422 6.9197e-05 AU
i 8.339262036280566 0.0045631 deg
node 314.6877632548669 0.0010707 deg
peri 174.9368002797646 0.0014558 deg
M 38.43455473383284 0.021178 deg
tp 2456319.804744569775
(2013-Jan-27.30474457)
0.0015392 JED
period 755.8378692314859
2.07
0.42968
0.001176
d
yr
n .4762926212813835 0.00027076 deg/d
Q 2.141904930904661 0.00081175 AU
  Orbit Determination Parameters
   # obs. used (total)      44  
   data-arc span      41 days  
   first obs. used      2013-01-31  
   last obs. used      2013-03-13  
   planetary ephem.      DE405  
   SB-pert. ephem.      SB405-CPV-2  
   condition code      6  
   fit RMS      .40261  
   data source      ORB  
   producer      Otto Matic  
   solution date      2013-Mar-20 01:50:17  

Additional Information
 Earth MOID = .120501 AU 
 T_jup = 4.252 
[ show covariance matrix ]

Ephemeris | Orbit Diagram | Orbital Elements | Physical Parameters | Close-Approach Data ]

Physical Parameter Table
Parameter Symbol Value Units Sigma Reference Notes
absolute magnitude H 23.792 mag .34708 11 autocmod 2.5b

[ show close-approach data ]
Ephemeris | Orbit Diagram | Orbital Elements | Physical Parameters | Close-Approach Data ]
ABOUT SSD CREDITS/AWARDS PRIVACY/COPYRIGHT GLOSSARY LINKS
FirstGov 2013-May-21 19:16 UT
(server date/time)  
NASA Home Page
Site Manager:   Donald K. Yeomans
Webmaster  Alan B. Chamberlin